• In Russia
  • List of Countries
  • For 7 days
  • Water Temperature
  • Satellite Maps
  • Weather Map
  • Weather Widgets
  • user-avatar
    Login

    Hourly Weather Graz

    Today, 28 July, Friday

    Time Temperature Precipitation Wind Pressure Humidity
    00:00 +15°C° 0 mm 1 mps 721 mmHg 87%
    01:00 +16°C° 0 mm 1 mps 721 mmHg 84%
    02:00 +16°C° 0 mm 1 mps 721 mmHg 84%
    03:00 +16°C° 0 mm 1 mps 721 mmHg 84%
    04:00 +16°C° 0 mm 1 mps 721 mmHg 84%
    05:00 +18°C° 0.2 mm 1 mps 721 mmHg 83%
    06:00 +19°C° 0.2 mm 1 mps 722 mmHg 82%
    07:00 +19°C° 0.2 mm 1 mps 722 mmHg 81%
    08:00 +21°C° 0.1 mm 1 mps 722 mmHg 76%
    09:00 +23°C° 0.1 mm 1 mps 722 mmHg 72%
    10:00 +22°C° 0.1 mm 0 mps 723 mmHg 67%
    11:00 +26°C° 0.1 mm 1 mps 723 mmHg 62%
    12:00 +27°C° 0.1 mm 1 mps 723 mmHg 57%
    13:00 +29°C° 0.1 mm 1 mps 723 mmHg 52%
    14:00 +28°C° 0.3 mm 1 mps 723 mmHg 54%
    15:00 +28°C° 0.3 mm 1 mps 723 mmHg 56%
    16:00 +27°C° 0.3 mm 1 mps 723 mmHg 58%
    17:00 +26°C° 0.1 mm 1 mps 723 mmHg 64%
    18:00 +24°C° 0.1 mm 1 mps 723 mmHg 71%
    19:00 +23°C° 0.1 mm 1 mps 723 mmHg 77%
    20:00 +22°C° 0 mm 1 mps 724 mmHg 80%
    21:00 +20°C° 0 mm 1 mps 724 mmHg 84%
    22:00 +19°C° 0 mm 1 mps 725 mmHg 87%
    23:00 +19°C° 0 mm 1 mps 725 mmHg 88%

    Tomorrow, 29 July, Saturday

    Time Temperature Precipitation Wind Pressure Humidity
    00:00 +18°C° 0 mm 1 mps 725 mmHg 90%
    01:00 +18°C° 0 mm 1 mps 725 mmHg 91%
    02:00 +16°C° 0 mm 1 mps 725 mmHg 91%
    03:00 +16°C° 0 mm 1 mps 725 mmHg 91%
    04:00 +15°C° 0 mm 0 mps 726 mmHg 91%
    05:00 +16°C° 0 mm 0 mps 726 mmHg 87%
    06:00 +18°C° 0 mm 0 mps 726 mmHg 82%
    07:00 +19°C° 0 mm 0 mps 727 mmHg 78%
    08:00 +23°C° 0 mm 1 mps 727 mmHg 70%
    09:00 +25°C° 0 mm 1 mps 727 mmHg 62%
    10:00 +27°C° 0 mm 1 mps 727 mmHg 54%
    11:00 +28°C° 0 mm 2 mps 727 mmHg 50%
    12:00 +29°C° 0 mm 2 mps 727 mmHg 47%
    13:00 +30°C° 0 mm 2 mps 727 mmHg 44%
    14:00 +30°C° 0 mm 2 mps 726 mmHg 46%
    15:00 +30°C° 0 mm 2 mps 726 mmHg 47%
    16:00 +30°C° 0 mm 2 mps 726 mmHg 48%
    17:00 +28°C° 0 mm 1 mps 726 mmHg 56%
    18:00 +27°C° 0 mm 1 mps 726 mmHg 64%
    19:00 +25°C° 0 mm 1 mps 726 mmHg 72%
    20:00 +24°C° 0.2 mm 1 mps 726 mmHg 75%
    21:00 +23°C° 0.2 mm 1 mps 726 mmHg 78%
    22:00 +20°C° 0.2 mm 0 mps 726 mmHg 81%
    23:00 +19°C° 0.3 mm 0 mps 726 mmHg 82%

    Day after tomorrow, 30 July, Sunday

    Time Temperature Precipitation Wind Pressure Humidity
    00:00 +21°C° 0.3 mm 1 mps 726 mmHg 83%
    01:00 +21°C° 0.3 mm 1 mps 726 mmHg 84%
    02:00 +20°C° 0.1 mm 1 mps 725 mmHg 85%
    03:00 +20°C° 0.1 mm 1 mps 725 mmHg 86%
    04:00 +18°C° 0.1 mm 0 mps 725 mmHg 87%
    05:00 +21°C° 0 mm 1 mps 725 mmHg 83%
    06:00 +23°C° 0 mm 1 mps 725 mmHg 80%
    07:00 +24°C° 0 mm 1 mps 725 mmHg 76%
    08:00 +26°C° 0 mm 1 mps 725 mmHg 68%
    09:00 +28°C° 0 mm 2 mps 725 mmHg 59%
    10:00 +30°C° 0 mm 2 mps 725 mmHg 51%
    11:00 +31°C° 0 mm 2 mps 725 mmHg 48%
    12:00 +33°C° 0 mm 3 mps 725 mmHg 45%
    13:00 +33°C° 0 mm 3 mps 725 mmHg 42%
    14:00 +33°C° 0.1 mm 3 mps 724 mmHg 44%
    15:00 +33°C° 0.1 mm 3 mps 724 mmHg 46%
    16:00 +32°C° 0.1 mm 2 mps 724 mmHg 47%
    17:00 +30°C° 0.3 mm 2 mps 724 mmHg 55%
    18:00 +28°C° 0.3 mm 1 mps 724 mmHg 63%
    19:00 +26°C° 0.3 mm 1 mps 724 mmHg 72%
    20:00 +25°C° 0.2 mm 1 mps 724 mmHg 74%
    21:00 +24°C° 0.2 mm 1 mps 724 mmHg 76%
    22:00 +23°C° 0.2 mm 1 mps 725 mmHg 78%
    23:00 +23°C° 0.1 mm 1 mps 724 mmHg 80%

    31 July, Monday

    Time Temperature Precipitation Wind Pressure Humidity
    00:00 +22°C° 0.1 mm 1 mps 724 mmHg 83%
    01:00 +21°C° 0.1 mm 1 mps 724 mmHg 85%
    02:00 +21°C° 0 mm 1 mps 724 mmHg 85%
    03:00 +21°C° 0 mm 1 mps 724 mmHg 86%
    04:00 +20°C° 0 mm 1 mps 724 mmHg 87%
    05:00 +22°C° 0 mm 1 mps 725 mmHg 83%
    06:00 +23°C° 0 mm 1 mps 725 mmHg 79%
    07:00 +25°C° 0 mm 1 mps 725 mmHg 75%
    08:00 +28°C° 0 mm 1 mps 726 mmHg 65%
    09:00 +28°C° 0 mm 0 mps 726 mmHg 56%
    10:00 +31°C° 0 mm 0 mps 726 mmHg 47%
    11:00 +33°C° 0 mm 1 mps 726 mmHg 44%
    12:00 +34°C° 0 mm 1 mps 726 mmHg 41%
    13:00 +35°C° 0 mm 1 mps 726 mmHg 38%
    14:00 +34°C° 0 mm 1 mps 726 mmHg 39%
    15:00 +34°C° 0 mm 1 mps 726 mmHg 40%
    16:00 +34°C° 0 mm 1 mps 725 mmHg 41%
    17:00 +32°C° 0 mm 1 mps 725 mmHg 49%
    18:00 +30°C° 0 mm 1 mps 725 mmHg 57%
    19:00 +28°C° 0 mm 1 mps 725 mmHg 65%
    20:00 +27°C° 0 mm 1 mps 726 mmHg 67%
    21:00 +25°C° 0 mm 1 mps 726 mmHg 69%
    22:00 +24°C° 0 mm 1 mps 726 mmHg 71%
    23:00 +24°C° 0 mm 1 mps 726 mmHg 73%

    1 August, Tuesday

    Time Temperature Precipitation Wind Pressure Humidity
    00:00 +23°C° 0 mm 1 mps 726 mmHg 74%
    01:00 +23°C° 0 mm 1 mps 726 mmHg 76%
    02:00 +23°C° 0 mm 1 mps 726 mmHg 77%
    03:00 +22°C° 0 mm 1 mps 726 mmHg 78%
    04:00 +22°C° 0 mm 1 mps 726 mmHg 79%
    05:00 +23°C° 0 mm 1 mps 726 mmHg 76%
    06:00 +25°C° 0 mm 1 mps 726 mmHg 73%
    07:00 +26°C° 0 mm 1 mps 727 mmHg 70%
    08:00 +29°C° 0 mm 1 mps 727 mmHg 62%
    09:00 +31°C° 0 mm 1 mps 727 mmHg 54%
    10:00 +34°C° 0 mm 2 mps 727 mmHg 45%
    11:00 +35°C° 0 mm 2 mps 727 mmHg 43%
    12:00 +35°C° 0 mm 3 mps 726 mmHg 41%
    13:00 +36°C° 0 mm 3 mps 726 mmHg 39%
    14:00 +36°C° 0 mm 3 mps 726 mmHg 39%
    15:00 +36°C° 0 mm 3 mps 726 mmHg 39%
    16:00 +36°C° 0 mm 3 mps 725 mmHg 39%
    17:00 +34°C° 0 mm 2 mps 725 mmHg 47%
    18:00 +31°C° 0 mm 1 mps 725 mmHg 55%
    19:00 +29°C° 0 mm 1 mps 725 mmHg 63%
    20:00 +28°C° 0 mm 1 mps 725 mmHg 65%
    21:00 +26°C° 0 mm 1 mps 725 mmHg 67%
    22:00 +25°C° 0 mm 1 mps 725 mmHg 69%
    23:00 +25°C° 0 mm 1 mps 725 mmHg 70%

    2 August, Wednesday

    Time Temperature Precipitation Wind Pressure Humidity
    00:00 +24°C° 0 mm 1 mps 725 mmHg 71%
    01:00 +24°C° 0 mm 1 mps 726 mmHg 72%
    02:00 +23°C° 0.1 mm 1 mps 726 mmHg 75%
    03:00 +23°C° 0.1 mm 2 mps 726 mmHg 78%
    04:00 +23°C° 0.1 mm 2 mps 727 mmHg 80%
    05:00 +24°C° 0.1 mm 2 mps 727 mmHg 79%
    06:00 +25°C° 0.1 mm 2 mps 727 mmHg 77%
    07:00 +26°C° 0.1 mm 1 mps 728 mmHg 76%
    08:00 +27°C° 0 mm 2 mps 728 mmHg 71%
    09:00 +28°C° 0 mm 2 mps 728 mmHg 66%
    10:00 +29°C° 0 mm 2 mps 729 mmHg 60%
    11:00 +30°C° 0 mm 2 mps 729 mmHg 55%
    12:00 +32°C° 0 mm 2 mps 729 mmHg 49%
    13:00 +34°C° 0 mm 2 mps 729 mmHg 44%
    14:00 +34°C° 0 mm 2 mps 729 mmHg 44%
    15:00 +34°C° 0 mm 2 mps 729 mmHg 43%
    16:00 +34°C° 0 mm 2 mps 728 mmHg 43%
    17:00 +31°C° 0 mm 2 mps 728 mmHg 51%
    18:00 +29°C° 0 mm 2 mps 728 mmHg 60%
    19:00 +27°C° 0 mm 1 mps 728 mmHg 68%
    20:00 +26°C° 0 mm 1 mps 729 mmHg 72%
    21:00 +25°C° 0 mm 1 mps 729 mmHg 76%
    22:00 +24°C° 0 mm 1 mps 729 mmHg 80%
    23:00 +23°C° 0 mm 1 mps 729 mmHg 82%
    Show more